Theta_e
327 327 327 327 325 324 324 324 324 324 323 321 320 320 319 318 316 315 314 314 312 311 309 309 307 307 306 306 306 304 304 304 302 301 303 303 303 303 299 297 298 298 298 298 298 298 298 297 297 297 297 297 297 297 296 296 295 295 295 295 296 296 297 297 297 297 296 296 296 296 296 297 297 298
326 326 326 325 324 324 324 323 323 322 321 319 318 317 317 316 315 315 315 315 314 312 310 309 308 307 306 306 306 304 304 304 301 300 302 302 303 301 297 297 298 297 298 298 297 298 297 297 297 297 297 297 297 296 296 296 295 295 295 296 296 296 297 297 297 297 296 296 296 296 296 296 296 297
324 324 324 323 323 323 322 320 319 318 317 316 315 315 314 314 315 315 315 314 314 313 311 310 308 307 306 305 305 304 304 303 300 300 302 302 301 299 297 298 298 297 298 297 297 297 297 297 297 297 297 297 296 296 296 295 295 295 296 296 296 297 297 297 297 297 297 296 296 296 295 296 296 296
322 322 321 321 321 319 317 316 315 314 314 314 313 313 313 313 314 314 314 313 314 313 312 311 309 307 305 305 304 304 304 303 300 300 302 303 300 298 300 301 300 298 298 297 297 297 297 297 297 297 297 296 296 296 295 296 296 296 296 296 296 297 297 297 297 297 297 296 296 296 295 296 296 296
319 319 318 318 317 316 314 314 313 312 312 312 311 312 311 312 313 313 312 312 314 314 312 311 309 306 305 305 304 304 304 304 302 301 302 303 301 301 302 302 302 301 298 297 297 297 297 297 297 297 297 296 296 295 296 297 297 296 296 296 297 297 297 297 297 297 297 297 296 296 295 296 296 296
318 317 316 316 315 314 313 313 312 311 310 309 309 309 309 309 311 311 310 310 312 314 312 310 309 307 305 305 304 303 303 304 303 302 302 302 302 301 301 302 303 302 299 298 297 296 297 297 297 297 297 296 296 296 297 297 297 297 296 297 297 298 297 297 297 297 297 297 296 296 295 296 296 296
317 316 315 315 314 313 313 312 310 309 308 307 308 308 307 308 310 310 310 310 310 313 312 310 308 307 306 305 304 303 302 303 302 301 301 301 301 301 302 302 302 302 300 298 296 297 297 297 297 297 296 296 296 297 297 298 297 297 297 297 298 298 298 297 298 298 298 297 297 296 296 295 296 296
316 315 315 315 313 312 312 311 309 308 307 306 307 306 306 307 309 309 309 309 309 311 312 310 308 308 307 305 304 303 302 302 302 302 302 302 301 302 302 301 302 301 299 298 297 296 297 298 297 296 296 296 297 297 297 298 298 298 298 298 298 298 298 298 298 298 298 297 297 296 296 295 296 296
314 314 315 314 312 311 311 310 309 308 307 306 306 306 305 306 307 308 308 309 309 309 309 309 308 307 306 305 304 303 302 302 303 303 304 303 303 303 302 301 302 301 300 300 299 298 299 300 298 296 296 297 298 297 298 298 298 298 298 298 298 298 298 298 298 298 298 298 297 296 296 295 295 296
314 314 314 313 311 311 311 310 309 308 307 307 306 306 306 306 307 308 308 308 307 307 307 308 308 307 306 305 304 302 302 302 303 303 304 304 304 305 304 302 302 302 302 302 301 300 301 301 299 297 297 298 298 298 298 298 298 299 298 298 298 298 298 298 298 298 298 298 297 297 296 295 295 296
314 313 313 312 311 310 311 310 309 309 308 307 307 307 307 307 308 307 305 305 306 307 307 308 307 306 305 304 303 303 302 302 303 303 303 303 304 304 304 303 303 302 302 302 302 301 301 301 300 300 299 300 300 299 300 300 300 299 298 298 298 298 298 298 298 298 298 298 298 297 296 296 295 295
313 312 312 311 310 309 310 309 309 308 308 308 307 307 308 307 306 305 304 305 306 306 306 306 305 305 305 303 303 304 303 303 305 305 304 303 303 303 304 304 303 302 302 302 302 302 303 302 302 302 302 302 302 301 301 301 300 298 297 298 298 298 298 298 298 299 299 298 298 297 297 296 295 295
312 311 311 310 310 309 309 308 307 307 307 307 308 308 308 306 304 304 305 306 305 305 305 305 305 304 304 303 303 304 304 304 306 305 304 303 304 304 304 304 304 303 302 302 303 303 303 303 302 303 303 303 302 302 302 301 299 297 297 297 297 298 298 298 298 299 299 299 298 298 297 296 296 295
311 310 310 310 308 306 304 303 303 303 303 303 307 308 306 305 305 305 306 305 305 305 305 304 304 303 303 303 304 303 304 305 305 304 304 304 304 304 304 304 304 304 303 302 303 303 303 302 303 303 303 302 302 302 301 300 298 297 297 297 297 297 298 298 298 298 298 299 298 298 298 297 296 296
311 310 310 309 305 302 301 301 300 301 301 301 303 303 301 302 304 306 306 306 305 304 304 303 304 303 303 304 303 303 304 305 304 304 304 304 304 304 304 304 304 305 304 303 303 303 303 303 303 302 302 302 302 302 301 300 298 297 297 297 297 297 298 298 298 298 298 298 298 298 298 297 297 296
311 310 310 309 306 303 303 304 301 301 301 301 301 301 300 299 300 302 304 305 305 304 303 303 303 303 302 303 304 304 304 304 305 305 305 305 305 305 305 305 304 304 304 304 303 303 303 303 303 302 302 302 301 301 301 300 298 298 298 298 297 297 298 298 298 298 298 298 298 298 298 298 297 297
311 310 309 309 308 306 305 305 304 302 301 301 300 300 301 299 299 299 300 301 303 304 304 303 302 302 302 303 304 305 304 304 305 305 305 305 305 305 305 304 304 303 303 304 303 303 303 303 303 303 302 302 301 301 301 300 299 298 298 298 298 298 298 298 298 298 298 298 298 298 298 298 297 297
311 310 309 309 310 308 306 306 306 305 303 303 302 302 302 302 300 299 297 296 297 299 302 302 301 302 303 303 304 304 304 304 304 304 304 305 305 304 304 303 303 303 304 304 304 303 303 303 303 303 302 302 301 301 301 300 299 299 299 300 299 299 298 298 298 298 298 298 298 298 298 298 297 297
310 310 309 309 310 310 308 307 307 307 306 306 305 305 305 304 304 301 298 296 296 297 298 300 302 305 305 303 303 305 305 304 304 304 304 304 303 303 303 304 304 304 305 305 304 303 302 302 303 303 303 302 302 301 300 300 299 299 300 300 300 300 300 299 298 298 299 298 298 298 298 298 297 297
310 310 309 310 310 310 309 307 305 305 307 307 307 306 305 304 304 304 300 296 296 297 296 298 302 305 305 303 302 304 304 304 304 304 303 303 303 304 305 305 304 304 304 304 304 303 302 302 303 303 302 302 302 302 301 301 300 300 301 300 300 300 300 300 300 299 299 299 299 299 298 297 296 297
310 310 310 310 309 308 308 306 303 302 304 306 306 306 305 304 303 304 301 296 294 295 295 297 300 302 303 303 301 301 301 300 301 302 302 303 304 305 305 304 304 304 303 303 303 303 302 302 303 302 302 302 302 302 302 301 301 301 301 301 301 301 300 300 301 301 301 300 300 300 299 298 297 298
310 310 310 309 308 308 308 305 302 301 302 305 306 305 305 305 303 302 302 300 297 296 297 299 300 301 302 303 302 301 300 299 299 299 301 302 303 304 304 304 304 304 303 303 303 302 302 302 302 303 303 303 302 302 302 301 301 301 301 301 301 301 300 301 301 301 301 301 301 301 300 299 298 299
310 310 308 306 307 309 308 304 302 302 302 304 306 305 304 304 303 301 303 303 301 300 301 302 302 303 303 303 303 302 302 301 300 299 300 302 303 303 304 303 303 304 303 304 304 302 302 302 302 303 303 303 302 302 302 301 301 301 301 301 301 301 300 301 301 301 301 301 301 301 301 300 300 299
310 310 308 305 306 307 307 304 303 303 303 304 305 305 304 303 303 303 303 303 302 302 303 304 305 306 305 304 304 304 303 302 301 299 299 301 303 303 303 303 303 303 303 304 303 302 302 302 302 302 302 302 302 302 301 301 301 301 301 301 301 301 301 301 301 302 302 301 301 301 301 301 300 300
310 310 309 306 305 305 305 304 303 303 303 303 304 305 304 303 303 303 303 302 300 301 302 303 304 304 303 303 304 304 304 303 302 301 301 302 303 303 302 303 303 302 303 304 303 301 301 302 302 302 302 302 302 302 301 301 301 301 301 300 300 301 300 301 301 301 302 302 301 301 301 301 301 300
310 309 309 308 305 304 305 304 304 304 303 303 303 303 303 301 300 300 301 301 300 301 302 303 303 302 301 302 303 304 303 303 303 303 303 303 303 303 302 302 302 302 303 303 302 301 302 302 302 302 302 302 302 301 301 301 301 301 301 300 300 300 300 301 301 301 302 302 301 301 301 301 301 300
310 309 309 309 306 304 305 304 304 304 304 303 303 302 301 299 296 296 299 300 301 302 303 304 304 303 302 302 302 303 303 301 301 302 303 303 303 303 303 302 302 302 302 302 302 302 302 302 302 302 302 302 302 301 301 301 301 301 301 301 300 300 300 301 301 301 301 301 301 302 302 301 301 300
311 310 310 308 306 304 304 305 304 304 304 303 303 303 301 298 294 295 298 300 301 303 304 305 305 305 304 303 302 302 302 300 300 301 303 303 303 303 303 303 302 302 302 302 301 301 301 302 302 302 301 301 301 301 301 301 301 301 301 301 300 300 301 301 301 301 300 301 301 302 302 301 301 301
311 311 309 307 305 305 305 304 304 304 304 304 303 303 302 299 296 297 299 301 302 304 305 305 306 305 304 304 303 303 301 300 300 301 302 302 302 303 303 303 303 303 303 303 303 301 301 301 302 301 301 301 301 301 301 301 301 301 300 300 300 300 301 301 301 301 300 301 301 301 301 301 301 300
310 308 307 306 306 305 305 304 304 304 304 304 303 303 302 300 299 299 301 303 305 306 306 306 306 305 305 304 304 303 302 301 299 299 299 300 301 302 303 303 303 303 303 303 303 302 301 301 301 301 301 301 300 300 301 301 300 300 300 300 300 300 300 301 301 301 300 301 301 301 301 301 300 300
308 307 307 306 306 306 305 304 304 304 304 304 303 302 302 301 301 302 303 304 306 307 306 306 306 305 305 305 304 303 302 300 299 298 299 300 301 302 302 303 303 303 302 302 302 302 302 301 301 301 301 301 301 300 300 300 300 300 300 300 300 300 300 300 301 300 301 301 301 301 301 301 300 300
309 307 307 307 306 306 305 304 304 305 304 304 303 303 302 303 303 303 303 304 305 306 307 306 306 305 305 305 304 303 301 300 299 299 299 300 300 300 301 302 303 303 302 302 302 302 302 302 302 301 300 300 301 301 300 300 300 300 300 300 300 300 300 300 300 300 301 301 301 300 300 301 300 300
309 308 308 308 308 307 306 306 306 306 306 305 306 305 305 305 305 305 305 305 305 306 306 306 306 305 305 305 304 303 302 301 300 300 300 300 301 300 301 302 302 302 302 302 302 302 302 302 302 302 301 301 301 300 300 300 300 300 300 300 300 300 300 300 300 300 301 301 300 300 300 301 300 299
309 309 309 309 309 309 308 308 307 307 307 307 308 307 307 306 306 306 306 306 306 306 306 306 306 305 305 305 304 304 303 302 301 301 300 300 300 300 301 302 303 302 302 302 302 302 301 301 302 302 302 302 302 302 301 300 300 300 300 300 300 300 300 300 300 300 300 300 300 300 301 300 300 299
309 309 309 309 309 309 310 309 308 308 308 308 308 308 308 308 307 307 306 306 306 305 305 305 305 305 305 305 305 304 304 303 302 302 301 300 300 300 301 302 302 302 302 301 301 302 301 301 301 301 301 301 301 302 302 301 300 300 300 300 300 300 300 300 300 300 300 300 300 300 300 300 300 300
308 309 310 310 310 310 310 309 308 308 308 308 308 309 309 308 307 307 306 306 305 305 305 304 304 304 305 304 305 305 303 302 302 302 301 301 302 301 301 302 302 302 302 301 301 301 301 301 301 300 301 301 300 300 302 302 301 299 299 300 300 299 300 300 300 300 300 300 300 300 300 300 300 300
308 310 310 311 311 310 310 309 309 308 309 309 309 309 308 308 307 306 306 305 305 305 305 304 303 303 303 302 302 303 303 302 301 301 300 301 302 302 302 302 302 302 302 301 301 301 301 301 301 300 300 301 300 299 301 302 301 300 299 299 300 300 300 300 300 300 300 299 299 300 300 300 300 299
309 310 310 310 310 310 309 309 309 309 309 309 309 309 308 307 307 306 305 305 305 304 304 303 303 302 302 301 301 302 302 302 302 301 301 301 301 301 301 302 302 302 302 301 301 301 301 301 301 300 300 300 300 299 300 300 300 300 300 300 299 299 300 299 299 300 299 299 299 299 299 299 299 299
310 310 310 310 309 309 309 309 309 310 309 309 308 308 307 306 306 306 305 305 304 303 303 303 303 302 302 302 302 302 302 302 302 301 301 301 301 301 302 302 301 301 301 301 301 301 301 300 300 300 300 300 300 300 300 300 299 300 300 300 299 299 299 299 299 299 299 299 299 299 299 299 299 298
310 310 309 309 309 309 310 310 310 310 309 308 307 307 306 305 305 305 305 304 303 303 303 303 302 301 302 302 302 302 302 302 302 301 301 301 301 301 301 301 301 301 301 301 301 301 300 300 300 300 299 299 299 300 300 300 299 299 300 299 299 298 298 298 299 299 299 299 299 298 298 298 298 298
310 309 309 309 309 310 310 310 310 309 308 307 306 306 305 305 304 304 304 303 303 303 302 302 301 301 301 301 302 301 301 301 301 301 301 301 301 300 299 299 300 301 301 301 301 300 300 300 300 299 299 299 300 300 300 300 300 300 300 299 298 298 297 297 297 298 298 298 298 298 297 297 297 296
310 310 310 310 310 310 310 309 308 307 306 306 305 305 304 304 304 303 303 302 302 302 301 301 301 300 300 300 300 300 300 300 300 301 301 301 300 299 299 299 299 300 300 300 300 300 300 300 300 300 300 300 300 300 300 300 300 300 299 299 299 298 298 297 297 297 297 296 296 296 296 295 295 295
310 310 311 310 309 308 307 306 306 306 305 305 304 304 303 303 302 302 301 301 301 301 300 300 300 300 300 300 300 300 300 300 300 301 300 300 299 299 299 299 299 300 300 300 300 300 299 299 299 299 300 300 300 300 300 300 299 300 299 299 299 298 298 297 297 297 296 296 295 296 295 293 291 292
310 310 309 307 306 306 306 306 305 305 305 304 304 303 302 302 301 301 300 300 300 300 300 300 300 300 300 299 299 300 300 301 301 300 300 299 299 299 299 299 300 300 300 300 300 299 299 299 299 299 300 300 300 300 300 299 299 300 299 299 299 298 298 298 297 297 296 295 295 295 295 291 288 288
308 307 306 306 306 306 305 305 305 304 304 304 302 301 301 300 299 299 299 299 299 299 299 300 300 300 300 300 299 300 300 300 300 300 299 299 298 298 299 299 299 300 300 300 299 299 299 299 299 299 300 300 300 300 300 299 299 299 299 299 299 299 299 299 298 297 297 295 294 294 295 292 288 286
Wind_Speed
12 12 13 14 14 13 14 13 11 10 10 9 9 10 11 10 6 5 6 6 9 11 12 10 9 11 9 8 8 7 6 10 10 6 6 7 8 12 13 11 11 10 11 12 12 11 11 12 13 14 15 16 16 17 17 17 17 18 18 18 20 23 25 27 28 29 30 30 31 33 34 35 36 35
11 11 11 12 12 11 10 10 10 9 9 10 10 10 10 11 10 7 5 5 8 11 11 10 8 10 10 9 9 7 6 11 10 6 7 7 8 12 13 11 11 10 10 11 11 12 12 12 13 14 15 16 17 16 16 16 17 17 17 18 21 23 25 27 28 29 30 31 32 33 34 36 37 37
11 10 10 11 10 9 8 8 8 9 9 9 10 10 10 11 11 10 8 5 6 9 10 10 8 9 11 9 8 7 7 10 10 6 6 7 9 11 11 10 10 10 10 11 12 12 12 12 13 14 15 16 16 16 15 15 15 16 17 19 21 23 26 26 27 28 29 31 32 33 35 37 38 38
10 10 10 10 10 8 8 8 8 8 8 8 9 9 9 10 9 10 9 7 4 6 7 9 8 9 10 9 9 8 7 8 9 6 6 7 9 9 9 11 12 9 9 10 11 12 12 12 13 14 16 16 16 14 14 14 14 16 17 19 22 24 25 26 27 28 29 30 32 33 35 37 38 38
10 10 10 10 9 9 8 8 7 7 8 8 8 8 8 9 8 8 10 9 5 5 6 8 9 9 10 9 9 8 7 6 6 5 6 7 8 8 8 10 12 9 8 9 11 12 12 12 13 15 16 15 14 12 13 13 15 16 18 20 22 24 24 25 27 28 29 30 31 33 35 37 38 39
10 10 11 10 10 9 8 7 7 7 7 7 7 8 7 8 7 8 9 10 8 6 7 9 9 9 10 9 8 7 6 5 5 6 6 7 8 8 7 8 9 10 10 11 11 11 10 11 13 15 15 13 11 11 12 14 15 17 18 20 22 23 24 25 26 28 29 30 31 32 34 37 38 39
11 11 11 10 10 9 8 8 7 6 7 6 6 7 7 6 6 7 8 9 9 7 7 8 9 9 9 9 7 6 6 5 5 6 7 8 8 8 8 7 7 9 10 12 12 10 9 10 13 14 12 10 9 11 12 14 16 17 19 20 21 22 23 24 26 28 29 29 31 32 34 36 38 39
12 12 12 11 10 10 9 9 8 7 7 7 7 7 6 6 6 6 8 9 8 6 6 8 9 8 8 8 6 5 5 5 6 7 7 8 8 7 8 8 7 8 10 11 10 7 7 10 12 12 10 8 9 12 14 15 16 17 19 20 21 21 22 24 26 28 29 29 30 31 33 35 37 39
12 12 12 11 11 11 11 10 9 9 9 8 7 7 6 6 6 5 6 7 5 5 7 8 8 7 6 7 6 5 5 5 7 8 8 8 8 7 8 8 7 8 9 9 8 7 8 10 12 11 8 9 11 13 15 15 15 17 19 20 20 20 22 24 26 28 29 29 30 31 32 34 37 39
12 12 12 12 12 12 12 11 10 10 10 8 7 6 5 5 5 5 4 4 5 7 8 7 6 7 7 6 5 5 5 5 6 7 7 7 7 6 7 7 6 6 6 7 7 7 8 10 12 11 10 10 11 13 15 15 15 18 20 20 20 20 21 23 26 28 29 30 30 31 32 34 36 38
13 13 12 13 13 13 12 12 11 11 10 8 6 6 4 4 4 4 3 4 6 7 7 6 6 6 6 6 5 5 5 5 7 7 7 7 6 6 7 7 6 6 6 7 9 9 9 10 10 12 13 12 10 13 15 13 14 18 19 20 21 21 21 23 25 28 30 30 31 32 33 34 35 37
13 13 13 13 13 13 13 12 11 11 9 8 7 6 4 4 4 2 3 5 6 7 6 6 5 5 5 6 6 5 5 6 6 5 5 7 8 8 8 6 5 6 7 8 9 9 9 10 10 13 14 10 9 14 13 10 13 18 20 21 22 22 22 22 25 28 30 31 31 32 33 33 34 36
14 14 13 12 13 14 14 14 13 12 11 8 6 6 5 4 3 2 4 5 6 6 6 6 5 5 6 6 6 6 6 5 4 3 5 7 8 8 8 6 4 4 7 8 9 8 8 9 10 11 11 8 9 12 10 9 15 20 21 23 24 24 23 23 24 28 30 31 31 31 33 34 34 35
14 14 13 13 15 16 16 15 14 13 11 9 8 7 7 5 3 4 5 6 6 6 6 6 6 6 6 5 5 6 5 5 5 5 6 7 7 7 8 7 4 3 6 9 10 9 7 8 10 11 10 9 9 10 9 11 18 21 22 25 26 25 25 23 24 27 30 31 30 31 33 34 35 35
15 14 13 13 15 15 14 14 14 12 11 10 10 9 7 6 6 5 5 5 6 6 6 5 5 6 6 5 6 6 5 5 5 6 6 7 7 7 7 7 4 3 5 9 10 9 8 8 9 10 10 10 11 11 10 13 18 21 23 25 26 26 25 24 24 27 30 31 30 31 33 35 36 37
15 14 13 12 13 14 14 13 13 14 12 11 11 10 7 7 8 9 8 6 5 5 6 5 4 5 6 6 6 6 5 5 5 6 7 7 7 8 8 8 7 6 7 9 10 10 9 8 9 11 10 10 12 13 11 12 17 21 23 25 26 26 25 25 25 27 29 30 30 30 33 36 37 39
15 14 14 13 12 13 15 13 12 13 13 12 11 10 8 8 9 10 11 10 8 5 4 5 5 5 6 6 5 5 5 5 6 7 7 7 7 8 9 9 10 10 9 9 10 11 10 8 9 11 11 11 13 13 12 13 16 19 22 24 26 27 26 26 26 27 29 29 29 30 33 36 37 40
15 15 14 14 12 13 15 14 12 12 12 12 11 10 8 9 10 10 11 12 12 10 8 6 6 6 6 6 5 4 5 6 6 7 8 8 8 9 11 12 13 12 9 7 10 11 10 9 11 12 11 13 14 14 13 14 15 19 22 22 25 28 28 27 27 27 28 28 28 29 33 35 36 40
14 14 14 14 13 13 14 14 14 13 12 12 11 9 9 8 8 9 10 11 12 12 12 10 6 5 5 6 5 4 5 6 6 7 8 9 10 11 13 12 12 9 6 5 8 11 11 11 12 13 13 14 15 15 14 13 17 22 22 20 23 26 28 29 27 26 27 28 28 29 32 33 35 39
14 14 14 14 13 13 14 15 16 15 13 11 10 9 9 8 8 8 10 12 13 13 13 13 10 8 8 8 9 9 8 7 6 7 9 10 11 11 11 11 9 7 6 5 7 11 13 12 12 14 15 15 15 15 14 14 18 22 20 19 22 24 26 29 28 26 28 30 29 30 31 32 35 38
14 14 14 14 13 13 14 16 17 16 14 11 9 9 9 9 9 9 10 13 14 13 13 13 12 12 11 11 12 13 13 12 9 9 9 10 10 10 10 10 8 8 9 7 5 9 13 12 12 14 15 16 15 14 14 16 19 20 18 19 21 22 25 29 27 26 29 31 31 31 31 32 36 36
14 14 16 16 13 13 16 16 15 15 14 11 9 9 10 10 11 11 10 11 13 13 13 13 13 13 13 13 14 14 14 13 12 12 12 11 11 11 10 10 10 10 10 5 2 9 13 12 12 14 15 16 15 13 15 18 20 19 18 20 21 21 24 27 25 24 27 31 32 30 29 32 34 32
14 14 17 19 15 14 16 15 14 15 15 12 10 10 11 11 12 12 11 11 11 12 12 12 12 12 12 12 13 14 14 14 14 15 14 12 12 12 11 11 10 10 8 2 3 9 13 12 13 15 14 14 14 14 18 20 21 20 21 21 21 22 24 25 23 23 25 29 30 29 29 31 31 28
15 14 16 20 20 18 17 15 14 15 15 13 11 10 11 12 12 11 11 11 11 10 10 10 10 9 9 9 11 12 13 14 15 16 16 14 12 12 12 12 10 11 9 4 5 10 13 13 14 15 15 14 14 17 20 22 21 21 22 22 23 23 24 24 22 22 24 27 28 28 29 28 27 26
16 16 15 19 23 22 19 16 15 15 16 14 11 10 11 11 11 10 10 10 11 10 9 10 9 9 9 10 11 11 12 12 13 13 14 14 13 13 13 12 12 12 10 7 8 11 13 14 14 14 16 17 17 19 21 22 21 22 22 22 22 23 24 23 23 23 24 25 26 27 28 26 25 26
16 17 15 17 21 22 20 18 16 15 16 15 12 11 12 12 13 11 9 8 10 10 10 10 10 10 10 10 11 11 11 11 11 11 12 12 13 14 13 13 13 13 12 11 12 12 12 13 14 14 16 17 18 20 21 21 21 23 23 22 21 22 23 22 22 23 23 25 25 26 26 24 25 26
15 15 15 15 18 20 19 18 17 15 16 16 13 12 12 13 14 12 9 8 9 9 10 10 10 9 10 10 11 11 11 11 11 11 11 12 12 13 14 13 14 15 14 14 14 13 12 13 14 14 15 16 18 19 20 20 21 23 24 23 22 22 22 21 22 23 24 25 25 25 25 23 25 26
13 14 15 15 16 16 15 16 15 15 16 15 13 11 11 11 12 13 11 10 10 10 11 11 11 10 11 10 10 10 10 9 10 10 11 12 12 13 14 14 14 15 16 16 16 14 14 14 14 14 15 17 18 18 18 20 22 22 23 23 22 21 21 21 22 23 24 25 24 24 24 24 24 26
13 13 14 15 14 13 13 13 14 16 16 14 13 12 12 12 12 13 13 12 11 11 12 12 12 12 11 11 10 10 8 8 9 10 11 13 14 15 15 15 16 16 17 17 16 15 15 15 14 14 15 16 18 19 19 20 21 21 21 21 21 20 20 21 22 22 24 25 23 23 24 23 23 25
12 13 14 14 13 12 12 13 14 15 15 15 15 15 15 15 14 13 14 13 12 12 12 12 12 11 11 10 9 8 8 10 11 12 13 13 14 14 14 15 15 16 16 15 15 14 14 14 13 14 16 17 18 19 20 21 21 21 20 20 20 19 19 21 21 22 23 24 22 22 23 22 22 24
13 14 14 14 13 12 12 12 12 13 14 16 18 19 18 17 16 15 15 14 13 13 12 11 11 11 10 10 9 8 10 11 12 12 12 13 13 13 13 14 14 15 14 14 13 13 13 13 13 14 15 17 18 19 19 19 20 20 20 19 19 18 19 20 21 22 23 23 22 22 22 22 21 22
14 16 15 13 12 11 11 11 12 12 13 14 17 18 18 16 15 15 15 15 14 14 13 12 12 12 11 11 10 10 11 11 11 11 12 13 13 13 13 14 14 14 15 14 14 12 11 11 12 13 15 17 18 18 18 17 18 19 19 19 18 18 18 19 21 22 22 22 22 22 22 21 20 21
15 16 15 13 12 12 12 13 13 12 12 13 14 15 16 15 14 15 15 15 16 15 14 14 14 14 13 13 12 12 11 10 10 10 11 12 12 13 13 14 14 14 15 15 15 14 13 11 11 13 16 17 16 15 15 15 15 16 17 19 18 18 18 18 19 21 21 22 23 22 21 21 19 19
16 15 15 13 13 14 13 14 14 13 13 14 14 14 15 15 15 16 16 16 17 16 16 16 16 16 15 14 14 13 12 10 10 10 11 12 12 12 13 14 14 15 16 16 15 15 15 15 14 14 16 16 14 13 13 13 13 14 16 18 17 17 18 17 18 20 20 21 22 21 20 21 19 18
15 14 14 14 14 15 14 14 14 14 14 14 13 14 15 16 16 17 19 19 18 18 18 17 16 15 15 14 14 14 12 11 10 10 11 11 12 13 14 14 14 14 15 15 15 15 15 15 15 16 17 17 15 13 11 9 8 12 15 16 17 17 17 17 17 18 19 20 21 20 19 21 21 19
15 14 15 14 15 15 14 14 14 14 14 14 14 15 16 16 16 17 18 19 19 19 19 17 15 14 13 13 13 13 12 11 11 11 11 11 11 12 13 14 14 14 14 15 16 15 15 14 15 16 17 16 14 12 8 5 5 7 13 15 16 15 16 16 16 17 17 18 20 19 17 19 21 20
15 15 16 15 14 14 14 14 13 14 15 15 15 15 15 16 17 17 17 18 18 17 16 14 13 12 13 13 13 13 12 12 12 11 11 11 11 11 12 13 13 13 14 14 15 15 14 13 14 15 15 12 9 9 10 8 7 6 9 13 14 14 14 14 15 16 16 16 19 19 18 18 19 18
15 15 15 14 14 14 13 13 13 14 15 16 15 15 15 14 15 16 16 17 16 14 13 13 12 12 12 12 13 13 13 13 12 11 10 10 11 12 12 12 12 13 13 14 15 14 13 12 13 15 14 11 8 8 11 13 12 9 8 10 11 11 12 12 12 13 14 15 17 18 17 17 18 16
15 15 14 13 13 13 12 13 14 15 16 15 15 14 14 13 13 13 14 14 13 12 13 14 13 12 12 12 13 13 13 13 11 10 10 10 11 12 12 12 12 13 13 14 14 13 13 14 14 13 13 14 13 12 13 16 17 13 9 10 11 10 10 11 12 12 13 13 15 16 16 16 17 14
15 15 13 13 13 13 13 14 15 16 15 14 14 13 12 12 12 12 12 13 12 12 13 14 13 13 14 14 14 13 13 12 11 10 10 10 11 11 11 12 12 13 14 14 13 13 14 14 10 10 13 16 16 15 15 15 16 14 10 9 10 11 10 10 10 10 11 12 14 15 15 16 17 14
14 13 13 13 13 14 14 15 15 14 13 12 11 11 11 11 11 12 12 13 12 13 13 13 13 14 15 15 14 13 12 12 11 11 11 11 10 10 10 11 12 14 14 13 13 13 14 10 8 11 15 15 14 14 13 12 13 12 7 4 5 10 12 10 9 8 8 10 11 13 14 15 16 13
14 13 13 12 13 14 14 14 13 12 11 11 10 10 11 11 11 11 11 11 11 11 12 12 13 14 14 15 15 14 13 13 12 12 11 11 10 10 10 11 12 14 14 13 13 14 14 11 11 13 14 13 13 13 12 11 11 13 10 4 4 8 11 10 9 9 9 8 8 10 13 14 13 12
13 12 12 11 12 12 12 12 12 11 11 10 10 10 10 10 10 11 11 11 12 12 12 13 13 14 14 14 14 15 14 14 13 13 12 11 10 10 11 11 12 14 15 14 13 14 14 14 14 14 14 14 13 12 12 11 11 13 14 10 6 6 8 8 8 9 10 8 7 8 12 12 9 8
12 12 11 10 11 11 11 11 11 10 10 10 9 9 9 9 10 10 11 12 12 12 13 13 13 13 13 13 13 14 15 14 13 13 12 12 11 11 12 12 12 13 13 13 13 14 14 14 14 14 13 13 13 11 12 13 12 12 14 13 8 5 7 7 8 9 9 7 6 7 13 14 10 6
12 12 11 10 11 11 11 10 10 10 10 9 9 9 10 10 10 11 11 12 12 12 12 12 12 12 12 12 12 13 13 13 13 13 12 12 12 11 12 13 14 14 13 13 13 13 13 13 13 13 12 12 11 11 12 12 12 12 12 12 10 10 8 6 7 8 7 5 3 6 13 15 11 7
Wind_Direction
220 221 221 223 229 232 231 232 233 231 232 232 231 227 227 236 239 227 222 219 218 206 195 204 207 199 205 207 213 236 245 246 265 286 266 261 268 277 289 288 280 287 293 293 292 290 294 298 303 310 313 314 316 319 323 326 328 332 336 338 336 335 337 339 342 344 345 343 341 341 340 338 336 333
214 216 218 222 227 227 224 227 227 226 228 228 229 232 232 237 244 250 249 228 212 199 197 213 210 196 204 210 215 231 239 248 262 269 262 266 261 272 286 284 279 286 290 292 290 288 292 295 299 305 309 312 316 318 322 325 329 334 335 334 332 333 336 338 341 344 344 344 344 343 342 340 340 337
210 210 212 217 219 217 214 217 217 217 220 223 225 232 234 238 243 249 261 253 200 187 201 215 209 199 203 207 219 229 232 250 265 268 261 262 262 275 285 280 281 285 285 291 292 289 292 292 296 303 307 312 316 318 322 325 330 335 333 330 329 331 335 338 341 343 343 343 344 344 344 343 342 340
209 207 209 210 208 206 204 206 206 206 212 218 224 232 232 234 238 237 250 257 201 173 199 208 203 204 204 209 227 230 225 247 268 274 255 258 272 279 278 276 280 283 285 292 295 294 293 291 295 302 308 314 319 320 322 327 333 333 329 326 327 331 334 337 341 343 343 344 344 344 345 345 343 341
204 202 203 201 196 194 195 196 199 204 208 214 220 227 228 227 227 225 234 245 220 171 185 202 204 206 207 217 231 231 228 242 266 273 253 259 276 275 276 275 267 269 289 299 300 301 295 291 296 303 311 317 320 320 325 331 332 329 324 323 326 330 334 336 339 342 343 343 343 343 345 346 344 343
194 193 195 190 183 184 189 194 199 202 203 207 209 211 217 219 220 219 225 237 233 199 188 203 208 205 211 224 228 225 233 241 255 269 264 267 272 267 277 280 261 264 290 300 304 305 295 292 298 307 315 320 319 322 327 330 329 325 322 323 327 330 333 334 338 341 343 343 343 343 345 347 346 344
187 187 187 184 178 177 184 190 195 195 191 197 196 193 204 212 212 217 220 230 239 223 197 205 213 205 209 224 225 216 228 241 256 271 270 270 273 269 271 277 265 268 287 298 305 304 294 295 303 312 319 317 316 320 324 325 325 322 321 324 327 330 332 333 336 339 341 342 342 343 345 347 347 345
186 186 186 183 179 180 186 188 190 189 185 189 190 188 197 200 199 206 213 224 237 230 205 211 218 211 204 216 222 215 225 244 255 264 267 268 275 279 278 277 268 271 290 304 306 302 299 305 313 318 317 309 311 316 318 321 321 321 324 326 327 330 332 334 335 338 340 341 342 342 345 348 348 347
187 187 187 185 182 183 187 187 188 188 186 188 188 189 191 190 190 194 203 213 217 219 221 217 211 206 198 202 209 214 233 260 262 259 263 265 268 279 286 282 269 274 295 311 313 314 318 320 319 315 305 300 307 312 315 318 320 325 328 327 327 331 334 335 336 337 339 340 341 342 344 348 349 349
187 188 188 186 186 188 188 188 189 187 186 188 187 188 188 180 177 177 186 204 208 219 229 219 198 200 199 198 209 215 229 266 282 279 279 271 262 272 289 289 278 273 286 298 303 310 320 320 312 306 301 298 302 312 319 322 325 330 330 328 328 332 335 337 337 337 339 340 341 342 344 347 350 349
186 188 188 187 187 188 189 189 189 186 184 185 181 176 178 167 160 173 196 218 219 222 225 217 206 202 197 204 220 214 219 255 269 276 291 295 286 286 290 288 285 284 286 293 300 306 314 318 314 309 304 294 297 317 324 324 328 332 332 330 329 330 334 339 338 338 339 340 341 343 343 346 349 349
185 186 188 190 189 188 190 190 189 187 180 176 176 168 164 162 162 195 231 223 215 217 220 221 216 204 199 211 219 214 228 255 255 254 288 303 301 298 292 282 279 296 304 304 306 307 308 314 318 313 307 300 310 324 326 327 331 334 335 335 332 330 333 338 340 340 341 340 341 342 343 344 347 348
186 186 187 190 189 188 192 192 189 186 178 170 171 167 156 155 169 222 238 226 216 214 216 217 213 211 214 215 216 224 237 257 271 274 285 292 294 298 300 289 271 292 313 314 310 306 303 308 313 314 316 322 325 326 331 336 334 337 341 341 338 333 332 337 340 341 341 340 340 342 343 343 345 347
186 187 186 188 192 194 196 198 195 192 188 179 173 168 160 159 184 224 230 225 221 219 221 220 217 224 229 222 224 238 246 252 271 278 278 288 298 302 303 298 271 272 316 321 313 307 306 307 309 315 321 327 327 326 329 331 334 340 345 344 341 336 334 337 339 340 341 340 340 342 344 343 343 345
184 184 182 184 194 197 196 197 197 197 199 196 193 194 191 184 192 210 222 223 222 226 231 227 221 231 242 238 232 238 246 249 260 272 277 290 304 308 310 312 306 300 323 322 311 307 307 300 304 316 321 324 327 321 314 321 334 340 343 345 345 340 338 339 340 340 340 339 339 342 343 343 342 343
181 180 179 181 188 190 188 190 193 196 200 201 204 214 222 213 206 207 208 213 220 231 235 229 224 239 250 248 236 235 249 263 269 275 281 289 299 305 308 311 314 320 322 315 308 309 308 296 299 314 320 324 325 317 308 316 332 339 341 346 348 345 343 343 342 341 341 339 339 341 343 343 343 344
180 178 178 178 179 184 186 185 186 192 197 204 213 222 232 236 231 218 209 207 210 218 232 233 231 241 253 255 246 235 244 269 281 281 287 294 298 304 308 310 313 312 308 309 309 308 308 304 303 310 320 326 324 318 311 312 325 335 339 344 348 349 349 348 346 344 342 340 339 341 344 344 344 346
181 180 180 180 178 181 185 183 180 183 188 198 211 218 224 234 239 232 221 214 211 211 212 217 232 245 252 258 261 245 235 252 272 282 293 301 303 305 304 300 298 294 287 298 310 309 313 317 312 309 316 323 322 321 316 312 322 329 330 336 344 347 349 350 350 348 345 343 342 342 345 345 345 348
182 183 184 184 181 178 181 184 182 179 181 187 193 201 211 220 226 227 225 217 210 210 209 208 223 244 243 240 244 238 232 248 270 279 285 290 291 293 294 290 289 289 282 290 307 311 316 319 314 311 314 318 320 323 319 318 324 324 323 331 340 341 344 348 350 352 351 349 347 345 346 347 347 350
185 187 186 185 183 178 181 191 192 185 182 186 190 199 211 215 211 211 219 219 212 210 212 210 213 224 229 232 233 229 233 247 269 282 283 280 276 279 287 290 292 298 298 295 304 311 314 314 313 314 317 318 317 316 316 318 322 322 323 332 337 337 340 343 345 349 351 350 349 349 349 350 350 351
186 188 187 185 183 181 186 200 204 194 188 191 197 207 212 211 206 203 215 225 220 217 222 224 227 234 240 246 246 242 246 252 259 270 275 277 278 280 287 295 300 304 301 295 295 307 311 313 314 315 316 316 314 314 315 318 322 324 328 333 335 336 338 338 340 343 345 346 346 347 348 351 352 350
186 189 190 188 184 186 193 202 206 199 195 197 204 212 211 209 209 203 202 215 220 223 231 237 243 247 249 252 251 248 251 255 255 258 261 271 283 284 288 297 302 301 299 294 299 309 310 313 315 317 317 316 317 320 322 325 329 333 335 336 335 336 337 337 338 341 343 343 343 343 344 348 350 348
186 188 193 192 187 190 198 202 202 199 198 199 207 214 212 211 214 206 198 203 213 221 231 239 244 247 248 250 250 249 252 254 255 255 255 263 274 278 285 295 296 297 301 330 355 315 311 312 316 320 323 322 322 325 327 329 331 335 339 339 337 338 339 338 340 342 342 341 342 343 341 342 346 345
185 185 191 196 196 198 201 201 200 199 198 200 208 214 214 217 215 203 198 205 211 219 231 238 238 237 237 240 241 242 249 256 260 257 253 254 260 269 281 286 286 291 298 312 333 320 313 312 314 320 325 323 321 325 328 329 329 334 341 341 339 340 341 341 341 342 342 342 344 345 342 342 347 347
186 184 186 196 201 204 205 204 201 202 202 204 209 214 217 219 211 196 194 207 216 226 237 240 239 237 234 234 233 235 240 246 251 250 247 246 249 256 268 276 280 287 289 294 316 317 309 306 309 315 321 321 322 324 325 327 329 335 340 340 340 341 342 343 342 341 343 344 345 345 344 346 351 350
187 187 185 194 201 203 205 206 204 205 207 208 212 218 222 222 216 206 201 208 216 224 229 232 236 236 234 236 236 237 239 239 238 237 239 241 242 246 256 264 273 280 284 292 302 302 296 298 304 309 313 318 321 320 321 324 328 331 334 338 341 341 342 345 344 342 343 344 344 345 347 349 352 353
186 187 185 192 199 199 202 206 207 208 211 213 217 223 226 229 225 217 214 217 218 221 226 232 238 238 237 241 240 239 242 245 243 239 238 239 241 245 251 256 262 270 277 284 288 286 283 289 295 300 306 311 314 315 319 323 325 328 332 335 338 340 344 347 346 344 344 344 343 345 348 352 355 356
183 182 182 189 194 193 197 204 207 210 213 217 223 227 226 227 223 218 220 223 223 227 233 237 241 243 242 243 242 243 246 247 246 244 240 241 244 249 255 259 262 266 272 276 280 280 279 282 288 294 299 304 307 311 316 319 320 324 329 331 334 338 343 345 346 346 346 345 345 347 350 355 357 357
180 181 182 185 186 187 194 200 206 213 217 220 225 227 224 222 219 218 221 223 224 229 235 238 242 244 242 242 244 244 244 245 249 248 245 246 249 252 256 259 261 265 267 269 272 274 274 276 282 290 295 299 302 306 311 316 319 322 325 328 331 335 339 343 345 348 348 346 346 349 351 355 358 358
186 188 188 188 188 191 198 202 207 215 220 222 224 226 225 222 218 217 220 222 225 230 235 240 243 243 244 246 243 237 236 244 250 249 247 250 251 249 252 257 262 270 272 267 267 271 276 281 285 290 295 299 300 303 308 313 316 318 322 328 331 332 337 341 343 347 349 346 345 348 351 354 359 0
193 193 190 190 194 198 203 207 210 215 219 223 224 225 225 224 221 221 223 226 229 235 239 243 244 243 245 246 239 234 240 245 247 246 246 250 252 251 255 259 265 276 281 276 271 267 268 279 289 290 292 294 295 299 304 308 311 314 321 329 331 332 337 340 342 347 349 345 343 347 352 356 0 2
190 196 192 188 190 195 197 199 202 206 211 217 221 221 221 222 222 223 226 230 234 238 242 245 246 245 245 243 239 242 244 243 244 244 242 247 251 253 257 260 265 275 282 283 282 271 258 263 277 289 294 293 292 296 300 303 307 313 321 329 331 333 337 340 343 345 346 344 343 347 352 357 2 3
180 191 191 183 182 187 189 191 195 200 204 209 212 212 214 219 222 222 223 227 231 235 238 242 244 243 244 244 244 245 243 241 245 245 240 244 250 252 255 259 264 274 282 286 289 289 285 279 278 286 293 291 288 295 302 303 306 313 321 328 331 333 337 341 343 342 343 345 346 345 349 356 2 5
180 185 186 185 190 194 195 197 200 203 205 208 212 213 215 221 227 229 229 229 232 235 238 241 243 242 243 247 247 247 243 241 245 245 241 245 250 251 253 255 259 268 278 283 288 292 295 298 296 296 296 291 283 281 283 292 306 314 320 328 332 333 335 340 341 340 341 345 347 346 347 352 358 5
185 188 190 195 201 203 204 203 203 204 206 209 217 223 227 229 231 233 234 233 234 237 239 241 241 239 239 242 246 247 242 239 248 252 246 243 247 249 252 255 260 268 276 283 289 292 294 299 304 308 311 311 308 295 272 264 297 317 321 327 332 333 334 336 337 338 341 345 348 349 348 350 352 358
192 195 198 204 206 206 208 207 204 205 212 218 225 231 235 236 234 233 234 234 234 238 239 237 233 231 232 235 240 243 238 234 246 256 253 248 248 249 253 257 260 267 274 280 285 289 293 299 305 311 316 319 319 316 296 243 243 305 322 327 329 331 334 332 331 336 341 345 348 350 349 347 348 354
201 201 202 207 208 207 207 206 205 211 221 229 232 234 237 239 236 235 235 234 232 232 232 230 226 227 231 233 234 236 235 233 240 248 250 252 253 254 257 258 256 260 267 271 275 283 292 299 304 310 319 320 313 317 319 296 264 282 320 327 326 328 330 327 326 332 339 343 346 348 346 344 345 351
206 204 204 208 208 206 207 209 213 221 226 232 236 237 239 240 236 235 236 232 223 218 219 224 227 227 230 233 233 233 234 233 234 238 241 247 255 257 257 258 257 258 262 266 272 280 287 291 294 302 314 321 313 310 317 312 304 302 314 320 321 323 324 323 323 328 334 340 343 343 343 344 342 344
207 206 206 205 203 204 208 213 221 228 231 234 237 234 232 231 228 228 228 223 218 218 223 228 230 228 231 236 236 234 233 230 228 232 236 244 255 259 257 258 258 260 265 270 275 283 288 290 294 303 314 319 314 308 307 307 306 303 297 299 310 321 323 320 323 327 332 338 340 338 340 344 341 342
205 205 206 204 204 210 215 220 227 232 232 232 230 224 222 224 222 222 223 221 223 228 229 230 230 228 231 237 236 232 231 229 228 232 237 244 254 257 259 263 261 259 265 270 273 281 289 295 308 322 321 314 308 303 298 290 287 285 275 270 294 319 325 319 321 328 333 338 339 337 341 345 343 345
199 200 203 205 210 217 222 225 228 229 226 224 220 216 219 222 222 224 227 227 227 228 229 230 230 228 229 232 230 228 229 229 230 234 237 243 249 250 253 259 259 258 263 269 271 277 286 302 329 332 321 311 301 295 291 283 284 294 288 236 270 312 319 316 318 327 334 339 342 343 345 344 340 345
194 197 202 205 209 215 219 219 219 219 218 218 217 215 218 222 224 225 226 226 226 227 229 231 230 228 228 227 223 223 226 228 232 236 238 242 247 248 246 246 245 247 254 259 267 276 286 300 314 317 315 310 298 291 292 294 299 309 315 298 273 295 304 309 320 326 329 337 348 355 354 345 338 347
194 198 200 200 202 207 210 209 210 213 217 217 217 216 216 217 219 220 220 223 227 227 229 231 231 229 229 226 222 223 226 228 231 235 239 243 248 252 254 249 239 240 249 257 266 278 289 297 302 305 308 306 297 291 293 296 298 303 310 314 306 274 271 289 310 315 316 323 339 358 1 354 345 346
194 197 197 196 198 202 206 207 209 213 215 213 212 212 211 213 217 220 222 225 228 228 228 231 231 229 228 227 226 226 228 228 229 232 236 243 245 246 253 252 241 235 244 257 268 277 285 292 298 300 300 298 294 291 293 296 297 300 306 314 315 281 252 261 279 283 284 293 312 348 2 2 357 351
190 192 194 195 197 201 203 204 208 211 210 209 208 208 210 216 221 225 226 226 228 228 228 228 229 229 228 227 228 228 228 230 232 233 236 242 245 244 245 245 240 238 245 256 267 277 286 293 294 292 289 286 285 286 289 290 293 298 302 306 305 296 284 273 267 266 262 250 266 342 356 359 359 358